カタログに戻る

STARLINK-1871

運用中通信VLEO
NORAD 47157·PAYLOAD·🇺🇸 United States

打ち上げ Nov 25, 2020 から Cape Canaveral Space Force Station

Loading…

次のパス (今後24時間)

TLE

最新Source: CelesTrak SupGP

元期: Sep 15, 2026, 01:45 UTC

1 47157C 20088AM  26258.07340278  .00073112  00000+0  15167-2 0  2589
2 47157  53.1516 127.9640 0001883 126.0495  14.8837 15.45087010    16

AllMySatでSTARLINK-1871をリアルタイム追跡

Download on the App Store